FENGYUN 1C DEB, 31888

Orbit data source: Space-Track

FENGYUN 1C DEB, 31888 is space debris in SSO originally from a launch on Mon, 10 May 1999 UTC launched from the Taiyaun Space Center, China (TSC). Fengyun 1C debris stems from the Chinese weather satellite Fengyun-1C, which was intentionally destroyed by a Chinese anti-satellite missile in 2007. This event dramatically increased the amount of space debris, with thousands of trackable fragments posing hazards to satellites and human spaceflight. The Fengyun 1C debris cloud has become a focal point in discussions about space sustainability and the need for international regulations to prevent the creation of new debris.

Loading next visibility...
Identifier
31888, 1999-025CKP
Orbit
SSO
Country
Flag of CNCN / PRC
Related business
Manufacturer
Unknown
Mission
Spacecraft
Bus & Motor
Unknown
Mass
Unknown
Launch date (UTC)
1999-05-10 (27 years ago)
Launch vehicle
Unknown
Launch site
Taiyaun Space Center, China (TSC)
Object type
Payload
Rocket body
Debris
Shape & HBR
Unknown shape, 0.1 m
Radar Cross Section
Small (<0.1 m²)

Expand to show TLE details & history
Last TLE update: 13 hours ago

TLE from 13 hours ago
0 FENGYUN 1C DEB
1 31888U 99025CKP 26236.10642324  .00003476  00000-0  12005-2 0  9994
2 31888  99.1606 182.9785 0016621 190.1216 169.9636 14.36424694992864
Epoch: 2026-08-24T02:33Z
TLE epoch observation values (Epoch: 2026-08-24T02:33:14.967Z)
Latitude
-0.00002°
Longitude
172.27325°
Altitude
784.96 km
Speed
7.455 km/s
True Right ascension
12h 11m 54s
True Declination
0° 00' 00"
Sunlit
Object was in daylight at epoch
Visualization orbit readout
Latitude
Unknown
Longitude
Unknown
Altitude
Unknown
Speed
Unknown
Apparent Right ascension
Unknown
Apparent Declination
Unknown
Sunlit
N/A
Visualization observer readout
Local Sidereal Time
06:49:03
Azimuth
Unknown
Elevation
Unknown
Doppler factor
Unknown
Orbital elements
Apogee altitude
779.371 km
Perigee altitude
755.618 km
Semi-major axis
7,145.632 km
Eccentricity
0.00166
Inclination
99.1606°
RAAN
182.9785°
Arg. of periapsis
190.1216°
True anomaly
169.99672°
Mean anomaly
169.9636°
Eccentric anomaly
169.98017°
Mean motion
3.59321 °/min
Orbital period
100.19 mins
BSTAR
0.0012005
Loading maneuver chart data...
Computing Atmospheric mass density...

Documentation

Showing up to 5 results
|